{"data":{"norad_id":48982,"epoch":"2026-09-20T04:19:56.030304Z","epoch_age_seconds":49490,"freshness":"FRESH","line1":"1 48982U 21060R   26263.18050961  .00000080  00000+0  17538-3 0  9993","line2":"2 48982  87.9154 209.9209 0002209  75.1406 284.9969 13.16593623252098","mean_motion":13.16593623,"eccentricity":0.0002209,"inclination_deg":87.9154,"raan_deg":209.9209,"arg_perigee_deg":75.1406,"mean_anomaly_deg":284.9969,"bstar":0.00017538,"rev_number":25209,"period_min":109.37315621496,"perigee_km":1196.0855837381,"apogee_km":1199.4326146347,"semimajor_km":7575.8960991864,"source":"CELESTRAK","updated_at":"2026-09-20T09:00:44.626125Z"}}